Flag for U.S.A. Weather past 2 weeks in Port Angeles, Washington, U.S.A.

Now
54 °F

Sunny.


Feels Like: 52 °F
Forecast: 46 / 61 °F
Wind: 7 mph from Northwest

Location: William R. Fairchild International Airport

Current Time: May 6, 2015 at 7:38:14 PM

Latest Report: May 6, 2015 at 6:53 PM


Visibility: 10 mi

Pressure: 30.12 "Hg

Humidity: 67%

Dew point: 43 °F

Location of Port AngelesLocation

Historic Weather in Port Angeles — Graph

°F

Port Angeles temperature yesterday

Maximum temperature yesterday: 55 °F (at 2:53 PM)
Minimum temperature yesterday: 43 °F (at 10:53 PM)
Average temperature yesterday: 48 °F

Past Weeks' High & Low Weather Summary

 TemperatureHumidityPressure
High65 °F (May 3, 3:53 PM)93% (Apr 24, 6:53 AM)30.31 "Hg (Apr 24, 6:53 AM)
Low37 °F (May 3, 5:53 AM)27% (May 3, 3:53 PM)29.71 "Hg (Apr 24, 3:53 AM)
Average49 °F72%30.05 "Hg
* Reported Apr 21 5:53 PM — May 6 5:53 PM, Port Angeles, Weather by CustomWeather, © 2015

Note: Actual official high and low records may vary slightly from our data, if they occured in-between our weather recording intervals... More about our weather records

Advertising

Port Angeles weather history for previous 24 hours

 ConditionsComfort  
Time TempWeatherWind HumidityBarometerVisibility
5:53 PM
Wed, May 6
56 °FSunny.10 mph65%30.12 "Hg10 mi
4:53 PM56 °FSunny.7 mph65%30.13 "Hg10 mi
3:53 PM58 °FSunny.5 mph56%30.13 "Hg10 mi
2:53 PM53 °FSunny.8 mph72%30.15 "Hg10 mi
1:53 PM57 °FSunny.3 mph62%30.14 "Hg10 mi
12:53 PM55 °FSunny.6 mph59%30.15 "Hg10 mi
11:53 AM54 °FPassing clouds.6 mph69%30.15 "Hg10 mi
10:53 AM52 °FOvercast.5 mph75%30.16 "Hg10 mi
9:53 AM50 °FOvercast.3 mph74%30.15 "Hg10 mi
8:53 AM48 °FOvercast.9 mph71%30.14 "Hg10 mi
7:53 AM46 °FScattered clouds.9 mph71%30.14 "Hg10 mi
6:53 AM44 °FScattered clouds.13 mph76%30.13 "Hg10 mi
5:53 AM43 °FClear.12 mph79%30.12 "Hg10 mi
4:53 AM42 °FClear.13 mph82%30.11 "Hg10 mi
3:53 AM43 °FClear.13 mph82%30.11 "Hg10 mi
2:53 AM44 °FClear.13 mph82%30.11 "Hg10 mi
1:53 AM43 °FClear.12 mph86%30.12 "Hg10 mi
12:53 AM44 °FClear.9 mph82%30.12 "Hg10 mi
11:53 PM
Tue, May 5
45 °FClear.9 mph82%30.11 "Hg10 mi
10:53 PM43 °FClear.No wind89%30.11 "Hg10 mi
9:53 PM46 °FClear.8 mph83%30.11 "Hg10 mi
8:53 PM47 °FBroken clouds.8 mph83%30.09 "Hg10 mi
7:53 PM48 °FMore clouds than sun.7 mph83%30.09 "Hg10 mi
Weather by CustomWeather, © 2015

See weather overviewHow to use our weather pages